Date,TemperatureHighF,TemperatureAvgF,TemperatureLowF,DewpointHighF,DewpointAvgF,DewpointLowF,HumidityHigh,HumidityAvg,HumidityLow,PressureMaxIn,PressureMinIn,WindSpeedMaxMPH,WindSpeedAvgMPH,GustSpeedMaxMPH,PrecipitationSumIn
2013-5-1,52.7,42.3,34.7,38.5,31.6,27.7,92,66,57,30.48,29.93,12,7,22,0.05
2013-5-2,45.9,41.2,34.7,30.0,27.1,25.2,75,58,46,30.57,30.44,27,12,27,0.00
2013-5-3,42.7,36.4,31.2,35.3,29.2,25.1,91,75,58,30.45,30.17,28,12,28,0.01
2013-5-4,43.6,38.1,33.4,41.0,36.0,31.2,94,92,88,30.19,30.13,20,11,20,0.10
2013-5-5,64.0,46.5,38.6,51.2,41.8,36.3,93,84,62,30.19,30.07,16,6,16,0.00
2013-5-6,71.9,57.9,41.0,53.7,48.4,40.0,97,73,49,30.10,29.97,3,1,15,0.00
2013-5-7,76.3,67.5,44.9,54.6,49.1,43.8,97,55,34,30.03,29.89,17,3,17,0.00
2013-5-8,73.3,61.6,54.5,59.8,53.3,48.0,92,76,47,29.97,29.90,23,4,23,0.07
2013-5-9,57.7,52.8,43.1,55.3,48.6,34.9,93,86,68,30.11,29.91,27,11,27,0.03
2013-5-10,66.0,47.6,35.3,34.9,30.8,19.2,80,57,22,30.13,29.94,15,6,15,0.00
2013-5-11,55.9,47.6,39.8,42.2,25.8,22.6,77,43,33,30.18,29.88,33,11,39,0.00
2013-5-12,59.0,42.9,28.0,29.3,23.5,16.2,90,53,21,30.23,30.09,26,5,26,0.00
2013-5-13,78.5,65.7,35.0,51.6,44.9,28.0,84,49,34,30.09,29.59,29,5,29,0.00
2013-5-14,96.8,72.0,46.4,58.0,48.1,34.6,92,49,17,29.65,29.38,31,6,31,0.00
2013-5-15,80.3,66.6,50.7,52.5,47.8,40.8,79,53,31,29.86,29.65,25,4,25,0.00
2013-5-16,80.5,68.9,48.1,49.8,45.3,35.8,91,47,28,29.87,29.77,21,4,21,0.00
2013-5-17,67.7,59.3,56.1,56.9,51.5,34.4,96,80,31,29.92,29.82,20,3,20,0.40
2013-5-18,78.5,63.3,57.0,68.9,60.4,55.8,98,91,70,29.90,29.71,16,3,20,1.53
2013-5-19,77.5,68.2,62.8,69.7,64.7,61.9,98,89,69,29.71,29.48,25,3,25,0.93
2013-5-20,63.9,62.9,62.0,63.3,62.0,60.7,98,97,95,29.50,29.43,7,1,12,0.02